Simultaneous Nadir Overpasses (SNOs) Predictions

Prediction of SNOs between AQUA and METOP-A Satellite Orbit:

Table of predicted SNOs for the next 14.0 days since TLE Epoch: 3/2/2018
Index Date (AQUA) Time (AQUA) Lat,Lon (AQUA) SZA (AQUA ) Date (METOP-A) Time (METOP-A) Lat,Lon (METOP-A) SZA (METOP-A ) Distance(km) Time Diff (sec)
1 03/03/2018 09:33:10 74.22, 30.20 81.12 03/03/2018 09:32:36 74.23, 30.28 81.13 2.76 34
2 03/03/2018 10:22:37 -74.27,-162.28 98.85 03/03/2018 10:23:17 -74.25,-162.35 98.87 3.04 40
3 03/06/2018 05:07:26 74.24, 96.58 80.05 03/06/2018 05:06:52 74.23, 96.69 80.04 3.53 34
4 03/06/2018 05:56:53 -74.28, -95.88 99.92 03/06/2018 05:57:32 -74.30, -95.80 99.92 3.24 39
5 03/09/2018 00:41:42 74.22, 163.07 78.92 03/09/2018 00:41:09 74.23, 163.10 78.94 1.32 33
6 03/09/2018 01:31:10 -74.31, -29.50 101.00 03/09/2018 01:31:49 -74.30, -29.38 101.01 3.69 39
7 03/11/2018 20:15:58 74.20,-130.46 77.79 03/11/2018 20:15:26 74.22,-130.50 77.82 2.33 32
8 03/11/2018 21:05:26 -74.29, 36.98 102.13 03/11/2018 21:06:06 -74.30, 37.04 102.12 2.43 40
9 03/14/2018 15:50:13 74.20, -64.01 76.67 03/14/2018 15:49:42 74.21, -64.11 76.70 3.40 31
10 03/14/2018 16:39:41 -74.28, 103.44 103.26 03/14/2018 16:40:22 -74.30, 103.44 103.24 2.53 41




NCC Satellite Simultaneous Nadir Overpasses (SNOs) Prediction Service
